BUCKY22 KSFB-KJAX

Flight info

Callsign BUCKY22
Flight time 1h 6m
Altitude 6000
Route WORMS GUANO SHINR
Aircraft PA24/L-SDGRY/S

Departure

Time 2026-04-26 16:05
Airport Orlando Sanford International Airport (KSFB)

Arrival

Time 2026-04-26 17:11
Airport Jacksonville International Airport (KJAX)
Time Latitude Longitude Altitude Speed Heading
2026-04-26 15:50 28.77892 -81.24964 52 ft 0 kts 230°
2026-04-26 15:59 28.77892 -81.24965 52 ft 0 kts 230°
2026-04-26 15:59 28.77871 -81.24934 52 ft 13 kts 94°
2026-04-26 15:59 28.77852 -81.24839 52 ft 9 kts 128°
2026-04-26 16:00 28.77830 -81.24815 52 ft 4 kts 134°
2026-04-26 16:00 28.77820 -81.24802 52 ft 2 kts 135°
2026-04-26 16:00 28.77772 -81.24745 52 ft 15 kts 119°
2026-04-26 16:00 28.77763 -81.24643 51 ft 10 kts 89°
2026-04-26 16:01 28.77763 -81.24564 50 ft 12 kts 89°
2026-04-26 16:01 28.77762 -81.24442 49 ft 17 kts 89°
2026-04-26 16:01 28.77763 -81.24304 48 ft 14 kts 87°
2026-04-26 16:01 28.77765 -81.24215 47 ft 7 kts 90°
2026-04-26 16:02 28.77766 -81.24172 46 ft 6 kts 89°
2026-04-26 16:02 28.77763 -81.24062 46 ft 20 kts 88°
2026-04-26 16:02 28.77764 -81.23875 46 ft 19 kts 88°
2026-04-26 16:02 28.77764 -81.23791 46 ft 13 kts 89°
2026-04-26 16:03 28.77763 -81.23689 45 ft 8 kts 88°
2026-04-26 16:03 28.77765 -81.23614 45 ft 8 kts 89°
2026-04-26 16:03 28.77764 -81.23567 44 ft 3 kts 91°
2026-04-26 16:03 28.77766 -81.23529 44 ft 14 kts 79°
2026-04-26 16:04 28.77811 -81.23480 43 ft 4 kts 359°
2026-04-26 16:04 28.77834 -81.23491 43 ft 5 kts 314°
2026-04-26 16:04 28.77846 -81.23530 43 ft 9 kts 278°
2026-04-26 16:04 28.77846 -81.23743 46 ft 51 kts 269°
2026-04-26 16:05 28.77842 -81.24275 120 ft 74 kts 265°
2026-04-26 16:05 28.77832 -81.24848 322 ft 71 kts 258°
2026-04-26 16:05 28.77776 -81.25410 501 ft 74 kts 261°
2026-04-26 16:05 28.77727 -81.26028 659 ft 82 kts 262°
2026-04-26 16:06 28.77673 -81.26706 815 ft 87 kts 263°
2026-04-26 16:06 28.77618 -81.27364 959 ft 90 kts 263°
2026-04-26 16:06 28.77555 -81.28087 1112 ft 92 kts 263°
2026-04-26 16:06 28.77496 -81.28777 1351 ft 84 kts 262°
2026-04-26 16:07 28.77441 -81.29428 1548 ft 82 kts 262°
2026-04-26 16:07 28.77388 -81.30064 1743 ft 80 kts 262°
2026-04-26 16:07 28.77338 -81.30692 1940 ft 78 kts 262°
2026-04-26 16:07 28.77290 -81.31291 2133 ft 75 kts 262°
2026-04-26 16:08 28.77244 -81.31880 2321 ft 75 kts 262°
2026-04-26 16:08 28.77213 -81.32282 2422 ft 79 kts 262°
2026-04-26 16:08 28.77146 -81.33142 2627 ft 84 kts 263°
2026-04-26 16:08 28.77091 -81.33826 2780 ft 88 kts 263°
2026-04-26 16:09 28.77083 -81.34509 2916 ft 91 kts 283°
2026-04-26 16:09 28.77470 -81.35076 3052 ft 94 kts 328°
2026-04-26 16:09 28.78103 -81.35280 3196 ft 95 kts 349°
2026-04-26 16:09 28.78758 -81.35386 3344 ft 96 kts 352°
2026-04-26 16:10 28.79425 -81.35476 3494 ft 96 kts 352°
2026-04-26 16:10 28.80086 -81.35559 3642 ft 95 kts 352°
2026-04-26 16:10 28.80746 -81.35640 3791 ft 95 kts 353°
2026-04-26 16:10 28.81409 -81.35719 3940 ft 95 kts 353°
2026-04-26 16:11 28.82062 -81.35796 4088 ft 95 kts 353°
2026-04-26 16:11 28.82720 -81.35873 4237 ft 94 kts 353°
2026-04-26 16:11 28.83368 -81.35949 4385 ft 94 kts 353°
2026-04-26 16:11 28.84026 -81.36025 4535 ft 93 kts 353°
2026-04-26 16:12 28.84661 -81.36098 4681 ft 91 kts 353°
2026-04-26 16:12 28.85290 -81.36172 4829 ft 89 kts 353°
2026-04-26 16:12 28.86510 -81.36316 5124 ft 86 kts 352°
2026-04-26 16:13 28.87099 -81.36386 5270 ft 85 kts 352°
2026-04-26 16:13 28.87684 -81.36455 5417 ft 84 kts 352°
2026-04-26 16:13 28.88270 -81.36526 5567 ft 84 kts 352°
2026-04-26 16:13 28.88853 -81.36596 5715 ft 84 kts 352°
2026-04-26 16:14 28.89439 -81.36665 5864 ft 84 kts 352°
2026-04-26 16:14 28.90024 -81.36735 5998 ft 85 kts 352°
2026-04-26 16:14 28.91383 -81.36884 6033 ft 108 kts 354°
2026-04-26 16:15 28.92158 -81.36965 6031 ft 114 kts 354°
2026-04-26 16:15 28.92961 -81.37053 6030 ft 117 kts 354°
2026-04-26 16:15 28.93783 -81.37143 6029 ft 119 kts 354°
2026-04-26 16:16 28.95443 -81.37332 6028 ft 120 kts 354°
2026-04-26 16:16 28.96272 -81.37427 6028 ft 120 kts 354°
2026-04-26 16:16 28.97117 -81.37525 6028 ft 120 kts 354°
2026-04-26 16:16 28.97952 -81.37622 6028 ft 120 kts 354°
2026-04-26 16:17 28.98784 -81.37719 6028 ft 121 kts 354°
2026-04-26 16:17 28.99594 -81.37813 6028 ft 121 kts 354°
2026-04-26 16:17 29.00449 -81.37913 6028 ft 121 kts 354°
2026-04-26 16:17 29.01281 -81.38027 6026 ft 120 kts 346°
2026-04-26 16:18 29.02101 -81.38180 6027 ft 119 kts 359°
2026-04-26 16:18 29.03789 -81.38278 6028 ft 120 kts 356°
2026-04-26 16:19 29.05473 -81.38421 6028 ft 120 kts 355°
2026-04-26 16:19 29.06311 -81.38499 6028 ft 121 kts 355°
2026-04-26 16:19 29.07706 -81.38631 6028 ft 121 kts 355°
2026-04-26 16:20 29.08825 -81.38739 6028 ft 121 kts 355°
2026-04-26 16:20 29.10484 -81.38676 6025 ft 120 kts 16°
2026-04-26 16:20 29.11314 -81.38764 6028 ft 119 kts 348°
2026-04-26 16:21 29.12129 -81.38937 6028 ft 120 kts 350°
2026-04-26 16:21 29.12963 -81.39063 6028 ft 120 kts 354°
2026-04-26 16:21 29.13804 -81.39161 6028 ft 120 kts 354°
2026-04-26 16:21 29.14642 -81.39253 6028 ft 120 kts 354°
2026-04-26 16:22 29.15482 -81.39342 6028 ft 120 kts 354°
2026-04-26 16:22 29.16322 -81.39432 6028 ft 120 kts 355°
2026-04-26 16:22 29.17150 -81.39521 6028 ft 120 kts 355°
2026-04-26 16:22 29.17996 -81.39610 6028 ft 121 kts 355°
2026-04-26 16:23 29.18836 -81.39700 6028 ft 121 kts 355°
2026-04-26 16:23 29.19672 -81.39788 6028 ft 121 kts 355°
2026-04-26 16:23 29.20503 -81.39877 6028 ft 121 kts 355°
2026-04-26 16:23 29.21354 -81.39967 6028 ft 121 kts 355°
2026-04-26 16:24 29.22183 -81.40055 6028 ft 121 kts 355°
2026-04-26 16:24 29.23022 -81.40144 6028 ft 121 kts 355°
2026-04-26 16:24 29.23867 -81.40232 6028 ft 121 kts 355°
2026-04-26 16:24 29.24695 -81.40363 6028 ft 120 kts 351°
2026-04-26 16:25 29.25537 -81.40497 6028 ft 120 kts 353°
2026-04-26 16:25 29.26366 -81.40612 6028 ft 120 kts 353°
2026-04-26 16:25 29.27205 -81.40720 6028 ft 120 kts 354°
2026-04-26 16:25 29.28045 -81.40822 6028 ft 121 kts 354°
2026-04-26 16:26 29.28884 -81.40918 6028 ft 121 kts 354°
2026-04-26 16:26 29.29451 -81.40981 6028 ft 121 kts 354°
2026-04-26 16:26 29.30554 -81.41100 6028 ft 121 kts 355°
2026-04-26 16:26 29.31399 -81.41190 6028 ft 121 kts 355°
2026-04-26 16:27 29.32236 -81.41277 6028 ft 121 kts 355°
2026-04-26 16:27 29.33059 -81.41361 6028 ft 121 kts 355°
2026-04-26 16:27 29.33907 -81.41447 6028 ft 121 kts 355°
2026-04-26 16:27 29.34731 -81.41531 6028 ft 121 kts 355°
2026-04-26 16:28 29.35576 -81.41616 6028 ft 121 kts 355°
2026-04-26 16:28 29.36410 -81.41700 6028 ft 121 kts 355°
2026-04-26 16:28 29.37247 -81.41785 6028 ft 121 kts 355°
2026-04-26 16:28 29.38088 -81.41869 6028 ft 121 kts 355°
2026-04-26 16:29 29.38927 -81.41953 6028 ft 121 kts 355°
2026-04-26 16:29 29.39769 -81.42037 6028 ft 121 kts 355°
2026-04-26 16:29 29.40602 -81.42121 6043 ft 120 kts 355°
2026-04-26 16:29 29.41428 -81.42204 6046 ft 120 kts 355°
2026-04-26 16:30 29.42265 -81.42288 6047 ft 120 kts 355°
2026-04-26 16:30 29.43108 -81.42372 6047 ft 120 kts 355°
2026-04-26 16:30 29.43954 -81.42457 6046 ft 120 kts 355°
2026-04-26 16:30 29.44791 -81.42541 6046 ft 120 kts 355°
2026-04-26 16:31 29.45635 -81.42625 6046 ft 120 kts 355°
2026-04-26 16:31 29.46461 -81.42708 6046 ft 120 kts 355°
2026-04-26 16:31 29.47305 -81.42793 6046 ft 121 kts 355°
2026-04-26 16:31 29.48144 -81.42876 6046 ft 121 kts 355°
2026-04-26 16:32 29.48982 -81.42960 6046 ft 121 kts 355°
2026-04-26 16:32 29.49540 -81.43017 6046 ft 121 kts 355°
2026-04-26 16:32 29.50629 -81.43126 6046 ft 121 kts 355°
2026-04-26 16:32 29.51388 -81.43202 6046 ft 121 kts 355°
2026-04-26 16:33 29.52255 -81.43289 6046 ft 121 kts 355°
2026-04-26 16:33 29.53090 -81.43372 6046 ft 121 kts 355°
2026-04-26 16:33 29.53930 -81.43457 6046 ft 121 kts 355°
2026-04-26 16:33 29.54769 -81.43541 6046 ft 121 kts 355°
2026-04-26 16:34 29.55610 -81.43626 6046 ft 121 kts 355°
2026-04-26 16:34 29.56456 -81.43710 6046 ft 121 kts 355°
2026-04-26 16:34 29.57285 -81.43794 6046 ft 121 kts 355°
2026-04-26 16:34 29.58127 -81.43878 6046 ft 121 kts 355°
2026-04-26 16:35 29.58973 -81.43989 6046 ft 120 kts 348°
2026-04-26 16:35 29.59793 -81.44201 6046 ft 120 kts 347°
2026-04-26 16:35 29.60612 -81.44423 6046 ft 120 kts 347°
2026-04-26 16:35 29.61424 -81.44643 6046 ft 120 kts 347°
2026-04-26 16:36 29.62251 -81.44868 6046 ft 121 kts 347°
2026-04-26 16:36 29.63072 -81.45091 6046 ft 121 kts 347°
2026-04-26 16:36 29.63887 -81.45312 6046 ft 121 kts 347°
2026-04-26 16:36 29.64706 -81.45535 6046 ft 121 kts 347°
2026-04-26 16:37 29.65533 -81.45760 6046 ft 121 kts 347°
2026-04-26 16:37 29.66353 -81.45983 6046 ft 121 kts 347°
2026-04-26 16:37 29.67170 -81.46205 6046 ft 121 kts 347°
2026-04-26 16:37 29.67982 -81.46426 6046 ft 121 kts 347°
2026-04-26 16:38 29.68802 -81.46649 6046 ft 121 kts 347°
2026-04-26 16:38 29.69627 -81.46873 6046 ft 121 kts 347°
2026-04-26 16:38 29.70453 -81.47098 6046 ft 121 kts 347°
2026-04-26 16:38 29.71273 -81.47321 6046 ft 121 kts 347°
2026-04-26 16:39 29.72097 -81.47546 6046 ft 121 kts 347°
2026-04-26 16:39 29.72912 -81.47768 6046 ft 121 kts 347°
2026-04-26 16:39 29.73731 -81.47991 6046 ft 121 kts 347°
2026-04-26 16:39 29.74556 -81.48216 6046 ft 121 kts 347°
2026-04-26 16:40 29.75372 -81.48438 6039 ft 119 kts 347°
2026-04-26 16:40 29.76162 -81.48651 6036 ft 114 kts 347°
2026-04-26 16:40 29.76941 -81.48866 6038 ft 116 kts 346°
2026-04-26 16:40 29.77743 -81.49085 6038 ft 118 kts 347°
2026-04-26 16:41 29.78549 -81.49305 6038 ft 119 kts 347°
2026-04-26 16:41 29.79364 -81.49527 6037 ft 120 kts 347°
2026-04-26 16:41 29.80175 -81.49747 6037 ft 120 kts 347°
2026-04-26 16:41 29.80990 -81.49970 6037 ft 120 kts 347°
2026-04-26 16:42 29.81816 -81.50195 6037 ft 120 kts 347°
2026-04-26 16:42 29.82634 -81.50418 6037 ft 120 kts 347°
2026-04-26 16:42 29.83444 -81.50639 6037 ft 120 kts 347°
2026-04-26 16:42 29.84267 -81.50864 6037 ft 120 kts 347°
2026-04-26 16:43 29.85085 -81.51087 6037 ft 120 kts 347°
2026-04-26 16:43 29.85899 -81.51308 6037 ft 120 kts 347°
2026-04-26 16:43 29.86716 -81.51532 6037 ft 120 kts 347°
2026-04-26 16:43 29.87519 -81.51751 6037 ft 119 kts 347°
2026-04-26 16:44 29.88328 -81.51971 6037 ft 118 kts 347°
2026-04-26 16:44 29.89129 -81.52190 6037 ft 117 kts 347°
2026-04-26 16:44 29.89924 -81.52409 6037 ft 117 kts 347°
2026-04-26 16:44 29.90724 -81.52627 6037 ft 117 kts 347°
2026-04-26 16:45 29.91522 -81.52846 6037 ft 117 kts 347°
2026-04-26 16:45 29.92317 -81.53062 6037 ft 117 kts 347°
2026-04-26 16:45 29.93115 -81.53281 6037 ft 117 kts 347°
2026-04-26 16:45 29.93902 -81.53497 6037 ft 117 kts 347°
2026-04-26 16:46 29.94708 -81.53717 6037 ft 117 kts 347°
2026-04-26 16:46 29.95501 -81.53934 6037 ft 117 kts 347°
2026-04-26 16:46 29.96291 -81.54150 6037 ft 117 kts 347°
2026-04-26 16:46 29.97091 -81.54369 6037 ft 117 kts 347°
2026-04-26 16:47 29.97890 -81.54588 6037 ft 117 kts 347°
2026-04-26 16:47 29.98678 -81.54803 6037 ft 117 kts 347°
2026-04-26 16:47 29.99449 -81.55014 6037 ft 117 kts 347°
2026-04-26 16:47 30.00249 -81.55233 6037 ft 117 kts 347°
2026-04-26 16:48 30.01050 -81.55453 6037 ft 117 kts 347°
2026-04-26 16:48 30.01841 -81.55670 6037 ft 117 kts 347°
2026-04-26 16:48 30.02624 -81.55887 6037 ft 117 kts 346°
2026-04-26 16:48 30.03419 -81.56107 6037 ft 117 kts 346°
2026-04-26 16:49 30.04216 -81.56328 6037 ft 117 kts 346°
2026-04-26 16:49 30.05002 -81.56544 6037 ft 117 kts 347°
2026-04-26 16:49 30.05800 -81.56764 6037 ft 117 kts 347°
2026-04-26 16:49 30.06598 -81.56983 6043 ft 117 kts 347°
2026-04-26 16:50 30.07396 -81.57202 6046 ft 117 kts 347°
2026-04-26 16:50 30.08184 -81.57419 6046 ft 117 kts 347°
2026-04-26 16:50 30.08978 -81.57636 6047 ft 117 kts 347°
2026-04-26 16:50 30.09771 -81.57854 6046 ft 117 kts 347°
2026-04-26 16:51 30.10575 -81.58074 6046 ft 117 kts 347°
2026-04-26 16:51 30.11362 -81.58290 6046 ft 117 kts 347°
2026-04-26 16:51 30.12159 -81.58509 6046 ft 117 kts 347°
2026-04-26 16:51 30.12953 -81.58727 6046 ft 117 kts 347°
2026-04-26 16:52 30.13743 -81.58944 6046 ft 117 kts 347°
2026-04-26 16:52 30.14274 -81.59090 6046 ft 117 kts 347°
2026-04-26 16:52 30.15335 -81.59381 6046 ft 117 kts 347°
2026-04-26 16:52 30.16138 -81.59602 6046 ft 117 kts 347°
2026-04-26 16:53 30.16930 -81.59819 6046 ft 117 kts 347°
2026-04-26 16:53 30.17714 -81.60035 6046 ft 117 kts 347°
2026-04-26 16:53 30.18510 -81.60253 6046 ft 117 kts 347°
2026-04-26 16:53 30.19314 -81.60474 6046 ft 117 kts 347°
2026-04-26 16:54 30.20109 -81.60693 6046 ft 117 kts 347°
2026-04-26 16:54 30.20899 -81.60910 6046 ft 117 kts 347°
2026-04-26 16:54 30.21696 -81.61129 6046 ft 117 kts 347°
2026-04-26 16:54 30.22488 -81.61347 6046 ft 117 kts 347°
2026-04-26 16:55 30.23279 -81.61565 6046 ft 117 kts 347°
2026-04-26 16:55 30.24065 -81.61801 6046 ft 117 kts 341°
2026-04-26 16:55 30.24859 -81.61732 6044 ft 116 kts 21°
2026-04-26 16:55 30.25606 -81.61371 6046 ft 116 kts 24°
2026-04-26 16:56 30.27092 -81.60611 6047 ft 117 kts 24°
2026-04-26 16:56 30.27838 -81.60229 6046 ft 117 kts 24°
2026-04-26 16:56 30.28585 -81.59846 6046 ft 117 kts 24°
2026-04-26 16:57 30.29333 -81.59462 6046 ft 117 kts 24°
2026-04-26 16:57 30.30080 -81.59080 6046 ft 117 kts 24°
2026-04-26 16:57 30.31577 -81.58312 6046 ft 117 kts 24°
2026-04-26 16:58 30.32326 -81.57928 6046 ft 117 kts 24°
2026-04-26 16:58 30.32821 -81.57674 6046 ft 117 kts 24°
2026-04-26 16:58 30.34555 -81.56786 6046 ft 117 kts 24°
2026-04-26 16:59 30.35294 -81.56407 6046 ft 117 kts 24°
2026-04-26 16:59 30.36785 -81.55643 6046 ft 117 kts 24°
2026-04-26 17:00 30.38284 -81.54875 6046 ft 117 kts 24°
2026-04-26 17:00 30.39782 -81.54108 6046 ft 117 kts 24°
2026-04-26 17:00 30.40525 -81.53728 6046 ft 117 kts 24°
2026-04-26 17:01 30.41274 -81.53344 6046 ft 117 kts 24°
2026-04-26 17:01 30.42027 -81.52959 6046 ft 117 kts 24°
2026-04-26 17:01 30.42775 -81.52576 6046 ft 117 kts 24°
2026-04-26 17:01 30.43527 -81.52190 6046 ft 117 kts 24°
2026-04-26 17:02 30.44276 -81.51807 6040 ft 118 kts 24°
2026-04-26 17:02 30.45025 -81.51418 5795 ft 119 kts 24°
2026-04-26 17:02 30.45796 -81.51031 5545 ft 121 kts 25°
2026-04-26 17:02 30.46574 -81.50638 5294 ft 122 kts 25°
2026-04-26 17:03 30.47353 -81.50246 5045 ft 123 kts 25°
2026-04-26 17:03 30.48124 -81.49856 4792 ft 117 kts 25°
2026-04-26 17:03 30.48853 -81.49494 4540 ft 113 kts 25°
2026-04-26 17:03 30.49575 -81.49136 4285 ft 111 kts 25°
2026-04-26 17:04 30.50272 -81.48791 4037 ft 110 kts 25°
2026-04-26 17:04 30.50976 -81.48444 3784 ft 109 kts 24°
2026-04-26 17:04 30.51688 -81.48153 3522 ft 109 kts
2026-04-26 17:04 30.52443 -81.48205 3268 ft 109 kts 354°
2026-04-26 17:05 30.53181 -81.48366 3018 ft 109 kts 350°
2026-04-26 17:05 30.53911 -81.48600 2755 ft 109 kts 333°
2026-04-26 17:05 30.54538 -81.49088 2501 ft 109 kts 321°
2026-04-26 17:05 30.55037 -81.49727 2246 ft 108 kts 306°
2026-04-26 17:06 30.55219 -81.50543 2062 ft 102 kts 269°
2026-04-26 17:06 30.55116 -81.51399 2053 ft 112 kts 259°
2026-04-26 17:06 30.54937 -81.52314 2049 ft 119 kts 256°
2026-04-26 17:06 30.54711 -81.53246 2047 ft 119 kts 254°
2026-04-26 17:07 30.54478 -81.54112 2044 ft 111 kts 252°
2026-04-26 17:07 30.54231 -81.54961 2046 ft 109 kts 251°
2026-04-26 17:07 30.53989 -81.55777 2006 ft 101 kts 251°
2026-04-26 17:07 30.53753 -81.56550 1889 ft 103 kts 250°
2026-04-26 17:08 30.53505 -81.57356 1761 ft 107 kts 251°
2026-04-26 17:08 30.53258 -81.58169 1626 ft 108 kts 251°
2026-04-26 17:08 30.53012 -81.58981 1486 ft 104 kts 251°
2026-04-26 17:08 30.52770 -81.59765 1350 ft 104 kts 251°
2026-04-26 17:09 30.52525 -81.60562 1211 ft 105 kts 251°
2026-04-26 17:09 30.52365 -81.61083 1125 ft 97 kts 251°
2026-04-26 17:09 30.52080 -81.62003 955 ft 87 kts 250°
2026-04-26 17:09 30.51874 -81.62661 841 ft 89 kts 250°
2026-04-26 17:10 30.51665 -81.63343 719 ft 88 kts 250°
2026-04-26 17:10 30.51462 -81.64006 602 ft 88 kts 250°
2026-04-26 17:10 30.51242 -81.64713 479 ft 97 kts 250°
2026-04-26 17:10 30.51038 -81.65391 358 ft 84 kts 248°
2026-04-26 17:11 30.50829 -81.66026 259 ft 84 kts 248°
2026-04-26 17:11 30.50642 -81.66662 147 ft 83 kts 249°
2026-04-26 17:11 30.50466 -81.67242 24 ft 61 kts 251°
2026-04-26 17:11 30.50368 -81.67553 22 ft 16 kts 243°
2026-04-26 17:12 30.50231 -81.67570 22 ft 8 kts 170°
2026-04-26 17:12 30.50178 -81.67604 23 ft 11 kts 253°
2026-04-26 17:13 30.50149 -81.67699 22 ft 12 kts 250°
2026-04-26 17:13 30.50097 -81.67875 20 ft 21 kts 250°
2026-04-26 17:13 30.49951 -81.67943 20 ft 17 kts 158°
2026-04-26 17:14 30.49847 -81.67901 20 ft 12 kts 144°